HULIANWANG DIGUI-126

导读 | 豆包AI

HULIANWANG DIGUI-126是中国于2025年12月11日发射的低轨互联网通信卫星,隶属于中国卫星互联网星座组网工程。作为天地一体化网络建设的组成部分,该卫星运行于近地轨道,依托低轨传输时延低、覆盖广的优势,可为全球偏远地区、海洋、航空等传统地面通信盲区提供宽带互联网接入服务,支撑手机直连卫星、6G天地融合等新技术落地,助力中国构建全球覆盖的卫星互联网通信体系,推动商业航天与数字基础设施建设发展。

Basic Information
目录编号:
67066
目录名称:
HULIANWANG DIGUI-126
国际标识:
2025-295H
轨道中心:
EARTH
卫星名称:
HULIANWANG DIGUI-126
卫星全名:
HULIANWANG DIGUI-126
卫星状态:
在轨 (已飞行165 天)
发射日期:
2025-12-11 UTC
国别 :
中国 (CN)
星等 :
--
Orbit Information
数据来源 国际轨道数据 AOE轨道数据
星历时间 2026-05-24T12:35:07+0800
1天前
查看轨道信息
2026-05-22T00:00:00+0800
3天前
查看轨道信息
半长轴 7527.44km 7527.441km
偏心率 0.0000916 0.0000908
轨道倾角 49.998° 49.997°
近地点辐角 350.132° 345.437°
升交点赤经 111.261° 120.317°
平近点角 9.953° 166.531°
近地点 1148.613km 1148.62km
远地点 1149.993km 1149.988km
周期 108.325分钟 108.326分钟
每日圈数 13.293272 13.293267
Detailed Information
使用方式:
暂无
2D Orbit Map
3D Orbit Map
Orbit Altitude Analysis Chart
Orbit Inclination Analysis Chart
Orbit Comprehensive Analysis Chart
View Comprehensive Chart